VE3TEJ Weather Reports


time (UTC)temp
F
wind
direction
speed
knots
gust
knots
rain 1hr
in
rain 24hr
in
rain mn
in
humidity
%
barometer
mb
20260510120746 44 16 2.6 5.2 0.00 0.19 0.00 65 1013.6
20260510120245 44 343 2.6 5.2 0.00 0.19 0.00 68 1013.5
20260510115745 43 356 4.3 5.2 0.00 0.19 0.00 67 1013.7
20260510115247 43 343 4.3 5.2 0.00 0.19 0.00 68 1013.6
20260510114746 43 332 1.7 2.6 0.00 0.19 0.00 68 1013.4
20260510114246 43 307 1.7 2.6 0.00 0.19 0.00 69 1013.4
20260510113746 43 318 2.6 2.6 0.00 0.19 0.00 71 1013.2
20260510113246 42 324 2.6 4.3 0.00 0.19 0.00 71 1013.4
20260510112746 42 286 0.9 1.7 0.00 0.19 0.00 72 1013.1
20260510112246 42 301 0.9 1.7 0.00 0.19 0.00 72 1013.0
20260510111745 42 286 0.9 0.9 0.00 0.19 0.00 73 1012.9
20260510111245 41 299 0.9 0.9 0.00 0.19 0.00 73 1013.1
20260510110747 41 293 0.9 1.7 0.00 0.19 0.00 73 1012.9
20260510110246 41 297 0.0 0.9 0.00 0.19 0.00 74 1012.9
20260510105746 40 285 0.0 0.0 0.00 0.19 0.00 76 1013.0
20260510105246 38 289 0.0 0.0 0.00 0.19 0.00 77 1012.9
20260510104745 38 283 0.9 0.9 0.00 0.19 0.00 77 1012.7
20260510104247 38 290 0.0 0.0 0.00 0.19 0.00 77 1012.7
20260510103746 38 291 0.0 0.0 0.00 0.19 0.00 77 1012.3
20260510103246 38 288 0.0 0.9 0.00 0.19 0.00 77 1012.2
20260510102746 38 289 0.0 0.0 0.00 0.19 0.00 77 1012.2
20260510102245 38 288 0.9 0.9 0.00 0.19 0.00 77 1012.3
20260510101745 37 289 0.0 0.0 0.00 0.19 0.00 77 1012.1
20260510101245 38 288 0.0 0.9 0.00 0.19 0.00 77 1011.9
20260510100746 38 288 0.0 0.0 0.00 0.19 0.00 77 1012.0
20260510100246 38 288 0.0 0.0 0.00 0.19 0.00 77 1012.0
20260510095746 38 288 0.0 0.0 0.00 0.19 0.00 77 1011.7
20260510095246 38 289 0.0 0.9 0.00 0.19 0.00 77 1011.8
20260510094745 37 289 0.0 0.0 0.00 0.19 0.00 78 1011.5
20260510094245 37 290 0.0 0.0 0.00 0.19 0.00 78 1011.5
20260510093747 37 288 0.0 0.0 0.00 0.19 0.00 79 1011.2
20260510093246 37 288 0.0 0.0 0.00 0.19 0.00 80 1011.2
20260510092746 37 288 0.0 0.0 0.00 0.19 0.00 78 1011.0
20260510092246 38 288 0.0 0.0 0.00 0.19 0.00 77 1011.0
20260510091745 38 290 0.0 0.0 0.00 0.19 0.00 75 1010.9
20260510091246 39 289 0.0 0.0 0.00 0.19 0.00 75 1011.0
20260510090746 39 290 0.0 0.0 0.00 0.19 0.00 73 1010.7
20260510090245 40 293 0.0 0.9 0.00 0.19 0.00 71 1010.7
20260510085745 40 314 0.9 1.7 0.00 0.19 0.00 71 1010.7
20260510085247 40 302 0.9 1.7 0.00 0.19 0.00 71 1010.2
20260510084746 40 313 0.9 1.7 0.00 0.19 0.00 71 1010.4
20260510084246 40 314 1.7 1.7 0.00 0.19 0.00 70 1010.3
20260510084209 40 314 1.7 1.7 0.00 0.19 0.00 70 1010.3
20260510083746 40 301 1.7 1.7 0.00 0.19 0.00 69 1010.1
20260510083245 41 316 1.7 1.7 0.00 0.19 0.00 70 1010.1
20260510082745 41 343 1.7 2.6 0.00 0.19 0.00 70 1009.9
20260510082247 41 301 0.9 1.7 0.00 0.19 0.00 69 1009.9
20260510081746 41 321 1.7 2.6 0.00 0.19 0.00 68 1009.8
20260510081245 41 307 1.7 1.7 0.00 0.19 0.00 69 1009.8
20260510080747 41 331 1.7 1.7 0.00 0.19 0.00 68 1009.8
20260510080246 41 313 1.7 1.7 0.00 0.19 0.00 67 1009.5
20260510075746 41 300 1.7 1.7 0.00 0.19 0.00 67 1009.7
20260510075246 41 316 1.7 1.7 0.00 0.19 0.00 68 1009.8
20260510074745 41 343 1.7 2.6 0.00 0.19 0.00 67 1009.6
20260510074245 41 324 1.7 2.6 0.00 0.19 0.00 67 1009.5
20260510073747 42 319 1.7 2.6 0.00 0.19 0.00 67 1009.7
20260510073246 42 317 1.7 2.6 0.00 0.19 0.00 67 1009.4
20260510072746 42 327 1.7 2.6 0.00 0.19 0.00 66 1009.6
20260510072246 42 316 0.9 1.7 0.00 0.19 0.00 66 1009.3
20260510071745 42 334 1.7 2.6 0.00 0.19 0.00 66 1009.1
20260510071245 43 328 1.7 2.6 0.00 0.19 0.00 65 1009.3
20260510070745 43 331 4.3 5.2 0.00 0.19 0.00 65 1009.4
20260510070247 43 308 2.6 2.6 0.00 0.19 0.00 65 1009.3
20260510065746 43 9 5.2 6.1 0.00 0.19 0.00 65 1009.4
20260510065246 43 323 2.6 2.6 0.00 0.19 0.00 65 1009.6
20260510064746 43 348 4.3 4.3 0.00 0.19 0.00 67 1009.2
20260510064245 44 313 1.7 1.7 0.00 0.19 0.00 67 1009.1
20260510063745 44 313 0.0 2.6 0.00 0.19 0.00 67 1009.1
20260510063247 44 321 1.7 2.6 0.00 0.19 0.00 66 1009.1
20260510062746 45 315 1.7 2.6 0.00 0.19 0.00 66 1009.1
20260510062246 45 342 2.6 4.3 0.00 0.19 0.00 66 1009.1
20260510061746 45 298 1.7 1.7 0.00 0.19 0.00 66 1009.1
20260510061245 45 318 4.3 5.2 0.00 0.19 0.00 65 1009.3
20260510060745 45 330 2.6 4.3 0.00 0.19 0.00 66 1009.0
20260510060247 46 314 2.6 2.6 0.00 0.19 0.00 65 1009.0
20260510055746 46 358 4.3 5.2 0.00 0.19 0.00 65 1009.1
20260510055246 46 328 2.6 4.3 0.00 0.19 0.00 65 1008.7
20260510054746 46 307 0.9 4.3 0.00 0.19 0.00 66 1008.7
20260510054245 46 314 1.7 1.7 0.00 0.19 0.00 66 1008.6
20260510054209 46 314 1.7 1.7 0.00 0.19 0.00 66 1008.6
20260510053745 46 300 1.7 1.7 0.00 0.19 0.00 65 1008.8
20260510053247 46 292 1.7 2.6 0.00 0.19 0.00 64 1008.6
20260510052746 47 339 4.3 5.2 0.00 0.19 0.00 64 1008.5
20260510052710 47 339 4.3 5.2 0.00 0.19 0.00 64 1008.5
20260510052246 47 298 2.6 4.3 0.00 0.19 0.00 64 1008.5
20260510051746 47 305 1.7 1.7 0.00 0.19 0.00 65 1008.5
20260510051245 47 307 1.7 1.7 0.00 0.19 0.00 64 1008.2
20260510050745 47 322 1.7 1.7 0.00 0.19 0.00 64 1008.2
20260510050245 47 315 1.7 1.7 0.00 0.19 0.00 64 1008.2
20260510045746 47 340 2.6 4.3 0.00 0.19 0.00 64 1008.2
20260510045246 47 298 0.9 1.7 0.00 0.19 0.00 65 1008.1
20260510044746 47 319 1.7 1.7 0.00 0.19 0.00 66 1008.0
20260510044246 47 300 0.9 1.7 0.00 0.19 0.00 66 1007.6
20260510044210 47 300 0.9 1.7 0.00 0.19 0.00 66 1007.6
20260510043745 48 326 1.7 1.7 0.00 0.19 0.00 65 1007.6
20260510043245 48 312 0.9 1.7 0.00 0.19 0.00 64 1007.5
20260510042747 48 303 0.0 1.7 0.00 0.19 0.00 64 1007.6
20260510042246 49 305 0.9 1.7 0.00 0.19 0.00 64 1007.7
20260510041746 49 302 0.9 1.7 0.00 0.19 0.00 64 1007.3
20260510041246 49 316 1.7 2.6 0.00 0.19 0.00 64 1007.2
20260510040745 49 304 1.7 1.7 0.00 0.19 0.00 63 1007.3
20260510040247 49 339 1.7 2.6 0.00 0.19 0.00 63 1007.3
20260510035746 49 354 2.6 4.3 0.00 0.19 0.19 64 1007.3
20260510035246 49 345 4.3 5.2 0.00 0.19 0.19 63 1007.3
20260510034745 50 346 2.6 4.3 0.00 0.19 0.19 63 1007.0
20260510034246 50 347 6.1 7.0 0.00 0.19 0.19 65 1006.7
20260510034209 50 347 6.1 7.0 0.00 0.19 0.19 65 1006.7
20260510033745 51 331 2.6 2.6 0.00 0.19 0.19 65 1006.8
20260510033245 50 333 2.6 4.3 0.00 0.19 0.19 65 1006.8
20260510032746 50 302 1.7 1.7 0.00 0.19 0.19 65 1006.6
20260510032246 50 296 1.7 1.7 0.00 0.19 0.19 65 1006.6
20260510031746 50 303 0.9 0.9 0.00 0.19 0.19 67 1006.7
20260510031246 51 318 1.7 1.7 0.00 0.19 0.19 64 1006.5
20260510030745 51 295 0.9 0.9 0.00 0.19 0.19 65 1006.0
20260510030245 50 301 1.7 1.7 0.00 0.19 0.19 66 1006.2
20260510025747 51 296 0.9 1.7 0.00 0.19 0.19 66 1006.3
20260510025246 51 305 0.9 2.6 0.00 0.19 0.19 66 1006.3
20260510024746 51 320 1.7 1.7 0.00 0.19 0.19 65 1006.0
20260510024246 51 309 1.7 2.6 0.00 0.19 0.19 65 1006.3
20260510024209 51 309 1.7 2.6 0.00 0.19 0.19 65 1006.3
20260510023745 53 330 2.6 2.6 0.00 0.19 0.19 64 1006.1
20260510023245 53 2 5.2 7.0 0.00 0.19 0.19 65 1006.4
20260510022747 53 324 4.3 5.2 0.00 0.19 0.19 65 1005.9
20260510022246 54 302 1.7 4.3 0.00 0.19 0.19 64 1005.4
20260510021746 54 350 2.6 4.3 0.00 0.19 0.19 64 1005.4
20260510021245 54 1 2.6 5.2 0.00 0.19 0.19 65 1005.4
20260510021209 54 1 2.6 5.2 0.00 0.19 0.19 65 1005.4
20260510020745 54 6 2.6 2.6 0.00 0.19 0.19 64 1005.5
20260510020245 54 310 2.6 4.3 0.00 0.19 0.19 64 1005.2
20260510015746 54 289 2.6 2.6 0.00 0.19 0.19 65 1005.4
20260510015246 54 312 2.6 4.3 0.00 0.19 0.19 65 1005.3
20260510014746 55 6 1.7 2.6 0.00 0.19 0.19 64 1005.1
20260510014245 55 326 2.6 4.3 0.00 0.19 0.19 65 1005.0
20260510013745 55 310 0.9 1.7 0.00 0.19 0.19 64 1004.5
20260510013245 55 324 2.6 4.3 0.00 0.19 0.19 67 1004.8
20260510012746 55 350 2.6 4.3 0.00 0.19 0.19 66 1005.0
20260510012246 53 332 4.3 5.2 0.00 0.19 0.19 85 1004.6
20260510011746 54 289 0.0 0.0 0.00 0.19 0.19 88 1004.4
20260510011245 54 290 0.0 0.0 0.00 0.19 0.19 88 1004.4
20260510011209 54 290 0.0 0.0 0.00 0.19 0.19 88 1004.4
20260510010745 55 289 0.0 0.0 0.00 0.19 0.19 87 1004.2
20260510010247 55 289 0.0 0.0 0.00 0.19 0.19 86 1004.2
20260510005746 55 290 0.0 0.0 0.00 0.19 0.19 86 1004.0
20260510005710 55 290 0.0 0.0 0.00 0.19 0.19 86 1004.0
20260510005246 56 291 0.0 0.9 0.00 0.19 0.19 86 1004.1
20260510004746 55 292 0.9 0.9 0.00 0.19 0.19 87 1004.2
20260510004245 55 306 0.9 1.7 0.00 0.19 0.19 87 1004.0
20260510004209 55 306 0.9 1.7 0.00 0.19 0.19 87 1004.0
20260510003745 55 324 1.7 1.7 0.00 0.19 0.19 88 1003.8
20260510003245 55 294 0.0 0.9 0.00 0.19 0.19 88 1003.5
20260510002746 55 285 0.0 0.0 0.00 0.19 0.19 88 1003.2
20260510002711 55 285 0.0 0.0 0.00 0.19 0.19 88 1003.2
20260510002246 55 279 0.9 0.9 0.00 0.19 0.19 88 1003.1
20260510001746 55 287 0.0 0.9 0.00 0.19 0.19 87 1002.9
20260510001245 55 285 0.0 0.0 0.00 0.19 0.19 87 1002.9
20260510000745 55 286 0.0 0.0 0.00 0.19 0.19 86 1003.1
20260510000248 55 285 0.0 0.0 0.00 0.19 0.19 86 1002.8
20260509235746 56 287 0.0 0.0 0.00 0.19 0.19 85 1002.9
20260509235246 56 284 0.0 0.0 0.00 0.19 0.19 85 1002.8
20260509234746 56 286 0.0 0.0 0.00 0.19 0.19 84 1002.7
20260509234245 56 276 0.0 0.9 0.00 0.19 0.19 83 1002.7
20260509233745 57 285 0.0 0.0 0.00 0.19 0.19 83 1002.8
20260509233246 57 287 0.0 0.0 0.00 0.19 0.19 83 1002.7
20260509232746 57 287 0.0 0.9 0.00 0.19 0.19 83 1002.7
20260509232246 56 274 0.9 0.9 0.00 0.19 0.19 84 1002.6
20260509231745 56 286 0.0 0.0 0.00 0.19 0.19 84 1002.5
20260509231245 56 280 0.0 0.9 0.00 0.19 0.19 83 1002.4
20260509230747 56 281 0.0 0.9 0.00 0.19 0.19 82 1002.5
20260509230246 56 268 0.9 1.7 0.00 0.19 0.19 82 1002.3
20260509225746 57 287 0.0 0.9 0.00 0.19 0.19 81 1002.4
20260509225246 57 285 0.0 0.0 0.00 0.19 0.19 82 1002.1
20260509224745 56 280 0.9 0.9 0.00 0.19 0.19 83 1002.1
20260509224245 56 286 0.9 0.9 0.00 0.19 0.19 82 1002.0
20260509223747 56 287 0.9 0.9 0.00 0.19 0.19 84 1001.8
20260509223246 56 286 0.9 1.7 0.00 0.19 0.19 83 1001.9
20260509222746 56 255 0.9 1.7 0.01 0.19 0.19 84 1001.7
20260509222246 55 259 0.9 1.7 0.01 0.19 0.19 85 1001.8
20260509221746 55 264 1.7 1.7 0.01 0.19 0.19 87 1001.7
20260509221246 55 298 1.7 1.7 0.01 0.19 0.19 88 1001.6
20260509220747 54 273 0.9 1.7 0.01 0.19 0.19 89 1001.6
20260509220246 54 283 0.9 0.9 0.01 0.19 0.19 90 1001.5
20260509215746 54 282 0.9 2.6 0.01 0.19 0.19 90 1001.4
20260509215245 53 274 0.9 0.9 0.01 0.19 0.19 91 1001.7
20260509214745 53 223 1.7 1.7 0.01 0.19 0.19 91 1001.8
20260509214245 53 282 0.0 0.9 0.02 0.19 0.19 91 1001.8
20260509213746 53 281 0.9 0.9 0.03 0.19 0.19 91 1001.9
20260509213246 52 278 0.9 1.7 0.14 0.19 0.19 91 1001.8
20260509212746 52 282 1.7 1.7 0.18 0.18 0.18 91 1002.2
20260509212245 51 278 0.9 0.9 0.18 0.18 0.18 91 1002.0
20260509211745 51 286 0.9 1.7 0.18 0.18 0.18 91 1002.2
20260509211245 51 282 0.0 0.9 0.18 0.18 0.18 91 1002.1
20260509210746 50 287 0.0 0.9 0.18 0.18 0.18 90 1002.2
20260509210246 51 281 0.9 1.7 0.18 0.18 0.18 90 1002.3
20260509205746 51 286 0.9 0.9 0.18 0.18 0.18 89 1002.0
20260509205245 51 274 0.9 1.7 0.18 0.18 0.18 88 1002.1
20260509204745 51 291 1.7 1.7 0.18 0.18 0.18 87 1002.3
20260509204247 51 287 0.9 1.7 0.17 0.17 0.17 85 1002.4
20260509203746 53 277 2.6 4.3 0.16 0.16 0.16 83 1002.7
20260509203245 57 289 1.7 2.6 0.05 0.05 0.05 82 1003.1
20260509202747 58 278 1.7 1.7 0.00 0.00 0.00 79 1002.0
20260509202246 58 284 0.9 0.9 0.00 0.00 0.00 78 1001.7
20260509201746 59 256 2.6 4.3 0.00 0.00 0.00 75 1001.5
20260509201246 59 256 1.7 1.7 0.00 0.00 0.00 73 1001.4
20260509200745 59 256 2.6 4.3 0.00 0.00 0.00 73 1001.3
20260509200245 59 235 2.6 5.2 0.00 0.00 0.00 73 1001.5
20260509195745 59 280 1.7 4.3 0.00 0.00 0.00 72 1001.5
20260509195246 59 286 1.7 1.7 0.00 0.00 0.00 72 1001.6
20260509194746 60 264 5.2 6.1 0.00 0.00 0.00 71 1001.4
20260509194246 60 266 1.7 1.7 0.00 0.00 0.00 72 1001.6
20260509193745 60 208 4.3 6.1 0.00 0.00 0.00 71 1001.6
20260509193245 60 251 2.6 5.2 0.00 0.00 0.00 71 1001.6
20260509192747 60 318 1.7 4.3 0.00 0.00 0.00 71 1001.4
20260509192246 60 289 1.7 1.7 0.00 0.00 0.00 72 1001.5
20260509191746 60 250 1.7 4.3 0.00 0.00 0.00 72 1001.7
20260509191246 60 277 2.6 4.3 0.00 0.00 0.00 72 1001.7
20260509190745 60 243 4.3 5.2 0.00 0.00 0.00 72 1002.1
20260509190245 60 238 2.6 5.2 0.00 0.00 0.00 72 1001.7
20260509185747 60 246 4.3 6.1 0.00 0.00 0.00 71 1001.6
20260509185246 59 271 1.7 5.2 0.00 0.00 0.00 72 1001.8
20260509184746 59 255 5.2 6.1 0.00 0.00 0.00 73 1001.6
20260509184246 59 256 2.6 6.1 0.00 0.00 0.00 73 1001.9
20260509183745 59 271 2.6 5.2 0.00 0.00 0.00 74 1001.9
20260509183245 59 286 2.6 4.3 0.00 0.00 0.00 74 1001.9
20260509182746 59 287 1.7 1.7 0.00 0.00 0.00 73 1002.3
20260509182246 59 239 1.7 2.6 0.00 0.00 0.00 74 1002.5
20260509181747 58 262 2.6 2.6 0.00 0.00 0.00 75 1002.4
20260509181246 58 235 1.7 2.6 0.00 0.00 0.00 75 1002.5
20260509180746 59 291 2.6 4.3 0.00 0.00 0.00 74 1003.0
20260509180245 60 262 2.6 2.6 0.00 0.00 0.00 74 1002.8
20260509175745 59 268 1.7 6.1 0.00 0.00 0.00 74 1002.6
20260509175247 60 261 1.7 2.6 0.00 0.00 0.00 73 1002.3
20260509174746 61 280 1.7 2.6 0.00 0.00 0.00 72 1002.3
20260509174246 61 235 4.3 5.2 0.00 0.00 0.00 71 1002.6
20260509173746 63 299 2.6 5.2 0.00 0.00 0.00 69 1002.2
20260509173245 62 267 1.7 4.3 0.00 0.00 0.00 70 1002.4
20260509172745 60 332 2.6 4.3 0.00 0.00 0.00 74 1002.3
20260509172247 62 269 2.6 5.2 0.00 0.00 0.00 72 1002.5
20260509171746 61 250 1.7 1.7 0.00 0.00 0.00 73 1002.8
20260509171246 62 272 2.6 5.2 0.00 0.00 0.00 71 1002.7
20260509170745 62 257 2.6 4.3 0.00 0.00 0.00 71 1002.7
20260509170245 63 243 2.6 4.3 0.00 0.00 0.00 70 1002.8
20260509165745 63 251 0.9 2.6 0.00 0.00 0.00 71 1003.0
20260509165246 63 251 0.9 2.6 0.00 0.00 0.00 71 1003.0
20260509164746 62 257 2.6 4.3 0.00 0.00 0.00 71 1003.1
20260509164247 62 256 2.6 4.3 0.00 0.00 0.00 71 1003.1
20260509163746 63 268 1.7 4.3 0.00 0.00 0.00 70 1003.1
20260509163247 62 261 1.7 4.3 0.00 0.00 0.00 73 1003.1
20260509162746 62 274 0.9 2.6 0.00 0.00 0.00 71 1003.5
20260509162246 61 260 1.7 5.2 0.00 0.00 0.00 71 1003.1
20260509161746 61 262 0.9 2.6 0.00 0.00 0.00 71 1003.3
20260509161245 61 275 0.9 2.6 0.00 0.00 0.00 70 1003.6
20260509160745 61 284 1.7 1.7 0.00 0.00 0.00 72 1003.7
20260509160247 61 258 0.9 2.6 0.00 0.00 0.00 72 1003.8
20260509155746 60 288 2.6 2.6 0.00 0.00 0.00 73 1004.1
20260509155246 60 267 1.7 2.6 0.00 0.00 0.00 72 1004.1
20260509154746 61 267 1.7 1.7 0.00 0.00 0.00 72 1004.2
20260509154245 61 256 1.7 1.7 0.00 0.00 0.00 71 1004.2
20260509153745 63 300 1.7 2.6 0.00 0.00 0.00 68 1004.0
20260509153247 62 271 0.0 2.6 0.00 0.00 0.00 69 1004.0
20260509152746 63 258 2.6 4.3 0.00 0.00 0.00 69 1004.1
20260509152245 62 283 1.7 2.6 0.00 0.00 0.00 71 1004.0
20260509151747 62 251 1.7 2.6 0.00 0.00 0.00 71 1003.8
20260509151246 61 220 1.7 4.3 0.00 0.00 0.00 74 1003.8
20260509150746 59 287 1.7 1.7 0.00 0.00 0.00 76 1003.7
20260509150245 59 229 1.7 4.3 0.00 0.00 0.00 76 1004.1
20260509145747 59 273 0.9 4.3 0.00 0.00 0.00 75 1004.1
20260509145246 59 287 0.9 4.3 0.00 0.00 0.00 76 1004.1
20260509144746 59 267 1.7 4.3 0.00 0.00 0.00 76 1004.2
20260509144246 59 300 2.6 4.3 0.00 0.00 0.00 74 1003.9
20260509143746 60 284 2.6 5.2 0.00 0.00 0.00 74 1004.0
20260509143245 59 272 0.9 1.7 0.00 0.00 0.00 75 1004.0
20260509142745 59 289 0.9 2.6 0.00 0.00 0.00 76 1004.2
20260509142246 58 270 1.7 1.7 0.00 0.00 0.00 77 1004.1
20260509141745 59 270 2.6 5.2 0.00 0.00 0.00 75 1004.0
20260509141247 58 245 1.7 1.7 0.00 0.00 0.00 78 1003.9
20260509140746 57 267 1.7 4.3 0.00 0.00 0.00 78 1004.1
20260509140246 57 266 2.6 4.3 0.00 0.00 0.00 79 1004.3
20260509135745 55 282 0.9 1.7 0.00 0.00 0.00 83 1004.2
20260509135245 54 267 1.7 2.6 0.00 0.00 0.00 85 1004.2
20260509134746 54 269 2.6 4.3 0.00 0.00 0.00 85 1004.3
20260509134245 53 271 1.7 2.6 0.00 0.00 0.00 86 1004.3
20260509133746 53 287 1.7 2.6 0.00 0.00 0.00 88 1004.5
20260509133246 52 282 0.0 0.0 0.00 0.00 0.00 90 1004.3
20260509132746 52 287 0.9 0.9 0.00 0.00 0.00 91 1004.4
20260509132245 52 286 0.0 0.9 0.00 0.00 0.00 92 1004.5
20260509131745 51 281 0.9 1.7 0.00 0.00 0.00 92 1004.5
20260509131245 51 265 0.9 1.7 0.00 0.00 0.00 93 1004.8
20260509130746 51 267 0.9 2.6 0.00 0.00 0.00 93 1004.5
20260509130245 50 277 0.9 1.7 0.00 0.00 0.00 94 1004.4
20260509125745 50 254 0.9 1.7 0.00 0.00 0.00 94 1004.7
20260509125246 50 257 0.9 1.7 0.00 0.00 0.00 94 1004.6
20260509124746 50 285 0.9 0.9 0.00 0.00 0.00 94 1004.5
20260509124246 50 271 0.9 0.9 0.00 0.00 0.00 94 1004.6
20260509123745 50 260 0.9 2.6 0.00 0.00 0.00 94 1004.7
20260509123245 50 280 0.9 1.7 0.00 0.00 0.00 94 1004.8
20260509122746 50 285 0.9 0.9 0.00 0.00 0.00 94 1004.7
20260509122246 49 283 0.0 0.9 0.00 0.00 0.00 94 1004.7
20260509121746 49 268 0.9 1.7 0.00 0.00 0.00 94 1004.8
20260509121245 49 277 0.9 1.7 0.00 0.00 0.00 94 1004.6